FENGYUN 1C DEB

Satellite information

Favourite Embed

Satellite Type and Status

DEBRISIN ORBIT

Key statistics

Satellite FENGYUN 1C DEB at a glance.

Uptime

9714

Days in orbit

Revolutions

≈ 14.1

Per day

Orbit

SSO

Sun Synchronous Orbit

Inclination

99.2

Latest

Satellite identification and parameters

Extended collection of information and parameters for FENGYUN 1C DEB.

Object identification

Identified? True

Debris? True

Object name: FENGYUN 1C DEB

International designator: 1999-025CMV

Object number (NORAD): 31944

Object ID (CCSDS): 31944

Country: PEOPLES REPUBLIC OF CHINA (PRC)

Current information (Y/N): Y

RCS size: SMALL

Orbital parameters

Period: 101.998 minutes

Inclination: 99.2035 deg

SMA: 7231.398 km

Apoapsis: 963.044 km

Periapsis: 743.483 km

RAAN: 133.6743 deg

Eccentricy: 0.0151811

Argument of periapsis: 5.8705 deg

Mean anomaly: 173.5719 deg

Mean motion: 14.11787529 rev/day

Mean motion (dot): 0.00001471 rev/day2

B* drag term: 0.0007470391 1/REarth

Two-line elements (TLE)

Creation date: Dec. 12, 2025, 10:14 a.m.

Reference frame: TEME

Reference center: EARTH

Epoch: Dec. 12, 2025, 4:22 a.m. UTC

TLE line 0: 0 FENGYUN 1C DEB

TLE line 1: 1 31944U 99025CMV 25346.18241684 .00001471 00000-0 74704-3 0 9998

TLE line 2: 2 31944 99.2035 133.6743 0151811 5.8705 173.5719 14.11787529629027

Live tracking on map

Real-time ground track for satellite FENGYUN 1C DEB.

In-orbit conjunctions

A list of the most updated potential collisions computed for object FENGYUN 1C DEB.

Target Orbit TCA Probability of collision Miss distance Type
METEOR 1-19 LEO 2025-09-15 10:20:52 0.0001123542 764.0 (m) PAYLOAD
THOR ABLESTAR DEB LEO 2025-08-27 16:53:43 0.0001591688 90.0 (m) DEBRIS
WEOS SSO 2025-04-15 04:26:23 0.0003877345 273.0 (m) PAYLOAD
H-1 R/B SSO 2025-04-08 19:44:53 0.0001727498 485.0 (m) ROCKET BODY
COSMOS 1850 LEO 2025-01-01 19:59:40 0.0002318434 240.0 (m) PAYLOAD

Associated space launch

Chinese polar orbiting meteorological satellite

FENGYUN 1C DEB was lifted into orbit during the mission ‘Long March 4B | Feng Yun 1C’, on board a Long March 4B space rocket.

The launch took place on May 10, 1999, 1:33 a.m. from Launch Complex 7.

For more information about the launch, click the button.

Launch to space Long March 4B | Feng Yun 1C
Long March 4B | Feng Yun 1C

Agency: N/A

Status: Launch Successful

Launch date: May 10, 1999, 1:33 a.m. UTC

Rocket: Long March 4B

Launch pad: Launch Complex 7

Location: Taiyuan Satellite Launch Center, People's Republic of China

...

Latest news about this satellite

There are no fresh news available about this satellite. Check back as we update our databases every day.


Newsletter sign-up

Weekly statistics, charts and insights to help you stay on top of the space industry.